2019 GF1
ephemeris date magn radius delta ra dec elong phase
Today19 Oct 202529.30.997 AU0.777 AU09h25m+16°42'67.1°67.0°
2019 GF1 - 2025-10-19
astro.vanbuitenen.nl


 
-1 year
-1 month
-1 day
Now
+1 day
+1 month
+1 year

The interactive orbit chart above shows the body's path through the solar system and its position at the given date. Green and blue lines are shown perpendicular to the ecliptic plane: Green if the path is above the ecliptic plane, blue if it is below. (Left-click and drag to rotate the view; Right-click and drag to move the view; Use scroll wheel to zoom in our out.)

The orbital elements of 2019 GF1 are:

            e (Eccentricity)                : 0.0484763
            a (Semimajor axis)              : 0.9898202
            i (Inclination)                 : 1.23551
            Ω (Longitude of ascending node) : 4.14275
            ω (Argument of perihelion)      : 326.17923
            M (Mean anomaly)                : 288.41553
            Epoch                           : 2025 May 05

            L (Longitude of perihelion)     : -29.67186
            B (Latitude of perihelion)      : -0.68764
            P (Orbital period in years)     : 0.98            
        

The light curve chart below shows the estimated development of the minor planet's magnitude.


The all-sky chart below shows the path of the minor planet over the same period as the light curve. The current position is marked yellow.





The following chart shows the path of the minor planet in the next few days. The field of view is optimized for (~10x50) binoculars and finderscopes.




Ephemerides:
Date       Time       RA (2000)    DEC (2000)    delta   radius  elong  phase   PA    magn
2025-10-19 00:00 UT   09 25 14.9   +16 42 14     0.777    0.997   67.1   67.0   289   29.3 
2025-10-19 23:55 UT   09 28 52.6   +16 25 47     0.777    0.998   67.2   67.0   289   29.3 
2025-10-20 00:00 UT   09 28 53.3   +16 25 44     0.777    0.998   67.2   67.0   289   29.3 
2025-10-21 00:00 UT   09 32 31.1   +16 08 60     0.777    0.998   67.3   66.9   289   29.3 
2025-10-22 00:00 UT   09 36 08.1   +15 52 03     0.777    0.999   67.3   66.8   289   29.3 
2025-10-23 00:00 UT   09 39 44.5   +15 34 53     0.777    1.000   67.4   66.8   290   29.3 
2025-10-24 00:00 UT   09 43 20.2   +15 17 30     0.777    1.001   67.5   66.7   290   29.3 
2025-10-25 00:00 UT   09 46 55.2   +14 59 54     0.776    1.002   67.6   66.6   290   29.3 
2025-10-26 00:00 UT   09 50 29.6   +14 42 07     0.776    1.002   67.7   66.6   290   29.3 
2025-10-27 00:00 UT   09 54 03.3   +14 24 07     0.776    1.003   67.8   66.5   290   29.3 
2025-10-28 00:00 UT   09 57 36.4   +14 05 56     0.776    1.004   67.8   66.4   291   29.3 


    Terminology:
            
    delta:  distance between minor planet and earth in AU
    radius: distance between minor planet and sun in AU
    magn:   magnitude (brightness) estimate    
    ra:     right ascension in hours (24h = 360deg)
    dec:    declination in degrees
    elong:  elongation in degrees (angle sun-earth-minor planet)    
    phase:  phase angle in degrees (angle sun-minor planet-earth)        
    AU:     Astronomical Unit (mean distance between earth and sun: 149597870.7 km
    

Orbital elements provided by the MPC (Minor Planet Center).
Calculations by a modified version of AAPlus, a C# implementation of the AA+ project by PJ Naughter from the algorithms presented in the book "Astronomical Algorithms" by Jean Meeus.
NGC2000 dso catalog and star labels from VizieR as provided by the Strasbourg astronomical Data Center.
Tycho2 catalog from the ESO archive.